| time (UTC) | temp C | wind direction | speed KPH | gust KPH | rain 1hr cm | rain 24hr cm | rain mn cm | humidity % | barometer mb |
| 20260508141524 | 9 | 70 | 8.0 | 12.9 | 0.00 | 2.21 | 0.03 | 100 | 1001.8 |
| 20260508140023 | 8 | 74 | 4.8 | 9.7 | 0.00 | 2.21 | 0.03 | 100 | 1002.1 |
| 20260508134513 | 7 | 82 | 8.0 | 16.1 | 0.00 | 2.21 | 0.03 | 100 | 1002.1 |
| 20260508133014 | 7 | 69 | 3.2 | 9.7 | 0.00 | 2.21 | 0.03 | 100 | 1002.3 |
| 20260508131512 | 7 | 83 | 3.2 | 12.9 | 0.00 | 2.21 | 0.03 | 100 | 1002.4 |
| 20260508130009 | 9 | 132 | 3.2 | 6.4 | 0.00 | 2.21 | 0.03 | 100 | 1002.3 |
| 20260508124505 | 8 | 146 | 0.0 | 4.8 | 0.00 | 2.21 | 0.03 | 100 | 1002.1 |
| 20260508123100 | 8 | 146 | 1.6 | 8.0 | 0.00 | 2.21 | 0.03 | 100 | 1001.9 |
| 20260508121555 | 7 | 171 | 1.6 | 6.4 | 0.00 | 2.21 | 0.03 | 100 | 1002.1 |
| 20260508120051 | 6 | 165 | 4.8 | 8.0 | 0.00 | 2.21 | 0.03 | 100 | 1002.5 |
| 20260508114548 | 5 | 149 | 0.0 | 4.8 | 0.00 | 2.21 | 0.03 | 100 | 1002.4 |
| 20260508113049 | 5 | 148 | 6.4 | 9.7 | 0.00 | 2.21 | 0.03 | 100 | 1002.3 |
| 20260508111558 | 5 | 149 | 0.0 | 3.2 | 0.00 | 2.21 | 0.03 | 100 | 1002.3 |
| 20260508110047 | 4 | 148 | 0.0 | 4.8 | 0.00 | 2.21 | 0.03 | 100 | 1002.4 |
| 20260508104547 | 4 | 146 | 3.2 | 11.3 | 0.00 | 2.21 | 0.03 | 100 | 1002.2 |
| 20260508103049 | 4 | 86 | 3.2 | 6.4 | 0.00 | 2.21 | 0.03 | 100 | 1002.2 |
| 20260508101546 | 4 | 76 | 1.6 | 8.0 | 0.00 | 2.21 | 0.03 | 100 | 1002.3 |
| 20260508100038 | 5 | 282 | 3.2 | 6.4 | 0.00 | 2.21 | 0.03 | 100 | 1002.2 |
| 20260508094536 | 5 | 281 | 0.0 | 0.0 | 0.00 | 2.21 | 0.03 | 100 | 1001.8 |
| 20260508093038 | 5 | 281 | 0.0 | 0.0 | 0.00 | 2.21 | 0.03 | 100 | 1001.7 |
| 20260508091535 | 5 | 281 | 0.0 | 1.6 | 0.00 | 2.21 | 0.03 | 100 | 1001.6 |
| 20260508090037 | 5 | 281 | 0.0 | 1.6 | 0.00 | 2.21 | 0.03 | 100 | 1001.3 |
| 20260508084528 | 6 | 281 | 1.6 | 6.4 | 0.00 | 2.21 | 0.03 | 100 | 1001.4 |
| 20260508083029 | 7 | 287 | 0.0 | 3.2 | 0.00 | 2.21 | 0.03 | 100 | 1001.4 |
| 20260508081527 | 7 | 288 | 0.0 | 4.8 | 0.00 | 2.21 | 0.03 | 100 | 1001.4 |
| 20260508080044 | 7 | 288 | 0.0 | 0.0 | 0.00 | 2.21 | 0.03 | 100 | 1001.6 |
| 20260508074523 | 7 | 288 | 0.0 | 0.0 | 0.00 | 2.21 | 0.03 | 100 | 1001.1 |
| 20260508073027 | 7 | 288 | 0.0 | 0.0 | 0.00 | 2.21 | 0.03 | 100 | 1001.7 |
| 20260508071522 | 6 | 288 | 0.0 | 0.0 | 0.00 | 2.21 | 0.03 | 100 | 1001.6 |
| 20260508070023 | 6 | 288 | 0.0 | 0.0 | 0.00 | 2.21 | 0.03 | 100 | 1001.8 |
| 20260508064536 | 6 | 288 | 0.0 | 0.0 | 0.00 | 2.21 | 0.03 | 100 | 1001.7 |
| 20260508063017 | 7 | 288 | 0.0 | 0.0 | 0.00 | 2.21 | 0.03 | 100 | 1001.5 |
| 20260508061518 | 7 | 288 | 0.0 | 0.0 | 0.00 | 2.21 | 0.03 | 100 | 1001.7 |
| 20260508060011 | 7 | 288 | 0.0 | 0.0 | 0.03 | 2.21 | 0.03 | 100 | 1001.3 |
| 20260508054516 | 8 | 288 | 0.0 | 3.2 | 0.03 | 2.21 | 0.03 | 100 | 1001.4 |
| 20260508053009 | 8 | 288 | 0.0 | 3.2 | 0.03 | 2.21 | 0.03 | 100 | 1001.4 |
| 20260508051507 | 8 | 288 | 1.6 | 8.0 | 0.03 | 2.21 | 0.03 | 100 | 1001.4 |
| 20260508050010 | 8 | 288 | 3.2 | 11.3 | 0.00 | 2.18 | 0.00 | 100 | 1001.5 |
| 20260508044503 | 8 | 68 | 1.6 | 4.8 | 0.00 | 2.18 | 0.00 | 100 | 1001.5 |
| 20260508043001 | 8 | 68 | 0.0 | 0.0 | 0.00 | 2.18 | 0.00 | 100 | 1001.4 |
| 20260508041604 | 7 | 68 | 0.0 | 0.0 | 0.00 | 2.18 | 0.00 | 100 | 1001.5 |
| 20260508034557 | 7 | 68 | 0.0 | 1.6 | 0.00 | 2.18 | 0.00 | 100 | 1001.9 |
| 20260508033055 | 8 | 67 | 3.2 | 6.4 | 0.00 | 2.18 | 0.00 | 100 | 1001.8 |
| 20260508031553 | 8 | 67 | 0.0 | 3.2 | 0.00 | 2.18 | 0.00 | 100 | 1001.9 |
| 20260508030054 | 8 | 67 | 0.0 | 4.8 | 0.00 | 2.18 | 0.00 | 100 | 1002.0 |
| 20260508024547 | 8 | 67 | 4.8 | 14.5 | 0.00 | 2.18 | 2.18 | 100 | 1001.9 |
| 20260508023047 | 8 | 273 | 1.6 | 6.4 | 0.00 | 2.18 | 2.18 | 100 | 1002.0 |
| 20260508021544 | 8 | 273 | 0.0 | 1.6 | 0.00 | 2.18 | 2.18 | 100 | 1001.8 |
| 20260508020042 | 9 | 273 | 0.0 | 3.2 | 0.00 | 2.18 | 2.18 | 100 | 1002.0 |
| 20260508014541 | 10 | 273 | 0.0 | 4.8 | 0.00 | 2.18 | 2.18 | 100 | 1002.3 |
| 20260508013041 | 10 | 273 | 0.0 | 0.0 | 0.00 | 2.18 | 2.18 | 100 | 1002.0 |
| 20260508011540 | 10 | 273 | 0.0 | 0.0 | 0.00 | 2.18 | 2.18 | 100 | 1002.1 |
| 20260508010039 | 10 | 273 | 0.0 | 0.0 | 0.00 | 2.18 | 2.18 | 100 | 1001.7 |
| 20260508004547 | 10 | 273 | 0.0 | 3.2 | 0.00 | 2.18 | 2.18 | 100 | 1001.5 |
| 20260508003046 | 10 | 274 | 0.0 | 1.6 | 0.00 | 2.18 | 2.18 | 100 | 1001.6 |
| 20260508001538 | 10 | 274 | 0.0 | 4.8 | 0.00 | 2.18 | 2.18 | 100 | 1001.7 |
| 20260508000038 | 10 | 274 | 0.0 | 3.2 | 0.00 | 2.18 | 2.18 | 100 | 1001.7 |
| 20260507234547 | 10 | 274 | 3.2 | 9.7 | 0.00 | 2.18 | 2.18 | 100 | 1001.6 |
| 20260507233039 | 10 | 275 | 1.6 | 6.4 | 0.00 | 2.18 | 2.18 | 100 | 1001.6 |
| 20260507231535 | 10 | 275 | 3.2 | 11.3 | 0.03 | 2.18 | 2.18 | 100 | 1001.5 |
| 20260507230035 | 10 | 273 | 3.2 | 11.3 | 0.03 | 2.18 | 2.18 | 100 | 1001.3 |
| 20260507224535 | 10 | 269 | 3.2 | 12.9 | 0.05 | 2.18 | 2.18 | 100 | 1001.3 |
| 20260507223041 | 11 | 266 | 6.4 | 12.9 | 0.03 | 2.16 | 2.16 | 100 | 1001.5 |
| 20260507221536 | 11 | 265 | 6.4 | 14.5 | 0.03 | 2.16 | 2.16 | 100 | 1001.5 |
| 20260507220039 | 11 | 283 | 4.8 | 14.5 | 0.03 | 2.16 | 2.16 | 100 | 1001.4 |
| 20260507214532 | 12 | 240 | 11.3 | 17.7 | 0.00 | 2.13 | 2.13 | 100 | 1001.4 |
| 20260507213032 | 13 | 198 | 4.8 | 14.5 | 0.00 | 2.13 | 2.13 | 100 | 1001.3 |
| 20260507211536 | 13 | 187 | 6.4 | 12.9 | 0.00 | 2.13 | 2.13 | 100 | 1001.2 |
| 20260507210031 | 13 | 184 | 8.0 | 12.9 | 0.00 | 2.13 | 2.13 | 100 | 1001.3 |
| 20260507204531 | 13 | 204 | 6.4 | 12.9 | 0.00 | 2.13 | 2.13 | 100 | 1001.0 |
| 20260507203028 | 12 | 180 | 8.0 | 16.1 | 0.03 | 2.13 | 2.13 | 100 | 1000.9 |
| 20260507201528 | 12 | 193 | 4.8 | 12.9 | 0.03 | 2.13 | 2.13 | 100 | 1000.7 |
| 20260507200027 | 12 | 200 | 8.0 | 12.9 | 0.08 | 2.13 | 2.13 | 100 | 1001.1 |
| 20260507194535 | 11 | 161 | 4.8 | 12.9 | 0.20 | 2.13 | 2.13 | 100 | 1000.8 |
| 20260507193028 | 10 | 161 | 3.2 | 16.1 | 0.28 | 2.11 | 2.11 | 100 | 1000.4 |
| 20260507191525 | 10 | 153 | 8.0 | 20.9 | 0.36 | 2.11 | 2.11 | 100 | 1000.2 |
| 20260507190036 | 12 | 143 | 9.7 | 17.7 | 0.38 | 2.06 | 2.06 | 100 | 1001.2 |
| 20260507184526 | 12 | 186 | 8.0 | 19.3 | 0.43 | 1.93 | 1.93 | 100 | 1001.8 |
| 20260507183018 | 12 | 183 | 11.3 | 16.1 | 0.53 | 1.83 | 1.83 | 100 | 1002.6 |
| 20260507181515 | 13 | 183 | 8.0 | 16.1 | 0.71 | 1.73 | 1.73 | 100 | 1002.5 |
| 20260507180018 | 13 | 178 | 9.7 | 16.1 | 0.94 | 1.68 | 1.68 | 100 | 1002.9 |
| 20260507174514 | 13 | 182 | 9.7 | 17.7 | 1.07 | 1.50 | 1.50 | 100 | 1002.9 |
| 20260507173033 | 13 | 196 | 14.5 | 20.9 | 1.22 | 1.27 | 1.27 | 100 | 1003.2 |
| 20260507171511 | 13 | 205 | 17.7 | 29.0 | 0.94 | 0.97 | 0.97 | 100 | 1003.8 |
| 20260507170018 | 13 | 210 | 16.1 | 33.8 | 0.71 | 0.71 | 0.71 | 100 | 1003.4 |
| 20260507164520 | 13 | 202 | 20.9 | 35.4 | 0.41 | 0.41 | 0.41 | 100 | 1003.6 |
| 20260507163009 | 13 | 216 | 22.5 | 38.6 | 0.05 | 0.05 | 0.05 | 100 | 1003.3 |
| 20260507161508 | 13 | 192 | 22.5 | 43.5 | 0.03 | 0.03 | 0.03 | 100 | 1003.1 |
| 20260507160006 | 14 | 184 | 24.1 | 41.8 | 0.00 | 0.00 | 0.00 | 100 | 1003.3 |
| 20260507154505 | 15 | 159 | 20.9 | 46.7 | 0.00 | 0.00 | 0.00 | 100 | 1003.8 |
| 20260507153003 | 15 | 149 | 20.9 | 49.9 | 0.00 | 0.00 | 0.00 | 100 | 1004.2 |
| 20260507151601 | 15 | 174 | 16.1 | 40.2 | 0.00 | 0.00 | 0.00 | 100 | 1004.6 |
| 20260507150101 | 15 | 193 | 16.1 | 45.1 | 0.00 | 0.00 | 0.00 | 100 | 1004.5 |
| 20260507150001 | 15 | 190 | 17.7 | 45.1 | 0.00 | 0.00 | 0.00 | 100 | 1004.6 |
| 20260507144601 | 14 | 180 | 19.3 | 38.6 | 0.00 | 0.00 | 0.00 | 100 | 1005.1 |
| 20260507143114 | 13 | 165 | 24.1 | 43.5 | 0.00 | 0.00 | 0.00 | 100 | 1005.7 |